Dewpoint
49 51 53 54 53 56 58 61 60 61 61 60 57 54 53 52 49 46 47 47 47 47 49 46 46 47 43 44 43 40 39 36 35 33 33 34 37 38 36 37 37 37 36
51 53 55 57 57 58 59 60 59 59 58 54 54 53 50 46 44 46 48 47 48 47 45 48 45 44 42 40 40 40 37 35 34 32 31 30 29 29 33 36 35 39 34
51 53 55 57 58 58 58 59 57 57 54 51 49 49 47 47 44 46 46 47 47 46 46 45 44 42 39 36 39 39 37 34 33 35 31 28 26 28 29 32 31 37 32
50 52 53 55 56 56 55 52 52 51 49 49 46 47 41 42 46 46 46 46 47 45 42 41 40 41 40 40 39 35 39 37 32 32 29 33 32 28 28 31 30 31 29
48 46 47 48 49 51 51 51 50 48 49 47 47 46 46 47 46 46 45 44 44 42 40 38 39 40 39 39 40 40 38 36 34 32 32 33 33 33 32 29 30 31 30
45 41 42 43 47 50 50 49 47 46 48 48 48 48 47 45 43 41 40 38 36 35 36 35 39 39 39 39 38 43 41 39 38 36 37 35 34 33 35 35 31 30 28
42 40 41 42 46 48 49 48 46 45 48 49 48 46 44 41 40 39 37 36 33 33 35 37 38 36 37 38 40 41 41 38 38 39 37 36 34 33 31 33 31 27 26
41 41 42 43 45 47 48 47 46 45 46 45 43 42 39 39 38 37 36 36 36 36 38 38 37 37 37 40 38 42 41 39 41 39 38 36 35 33 31 29 29 28 23
41 41 42 44 46 47 48 48 46 44 43 41 39 39 39 40 39 38 39 37 38 33 34 36 36 35 35 35 38 39 39 40 39 38 39 35 34 31 27 26 26 26 25
42 42 43 46 46 47 47 49 46 41 37 37 38 36 39 37 37 37 35 34 33 31 30 31 30 30 32 33 33 38 37 38 39 35 34 32 30 28 27 25 25 24 22
42 43 44 46 47 47 47 44 40 37 36 35 37 39 36 33 32 31 30 29 30 29 29 29 30 31 31 31 33 37 36 33 34 33 33 31 29 28 26 26 26 22 23
42 43 44 45 45 44 42 39 38 37 37 37 39 30 30 30 29 27 27 30 30 31 31 31 30 31 30 31 32 32 33 32 32 32 32 30 25 28 26 24 22 22 22
42 42 42 41 40 40 38 39 37 36 35 31 25 26 26 25 26 26 28 29 30 31 31 31 31 31 34 36 35 34 34 34 33 31 29 28 28 25 22 23 22 22 17
41 40 40 39 39 39 38 34 34 32 27 23 22 23 24 27 28 29 29 31 31 32 31 31 31 34 34 33 32 32 31 31 30 30 29 26 23 22 23 19 19 18 18
39 39 39 38 37 36 33 32 31 27 25 23 21 22 26 27 28 29 31 31 32 31 30 31 31 32 32 30 29 30 30 28 28 27 22 22 22 21 20 17 19 19 17
38 38 37 37 35 33 30 30 26 24 25 21 20 21 23 24 26 29 31 31 30 30 31 32 33 33 30 30 30 29 27 26 23 21 21 21 23 22 24 25 24 21 17
38 38 36 35 33 30 28 24 24 24 23 21 19 20 22 23 25 25 26 29 31 30 32 33 32 34 34 31 30 26 25 25 23 22 21 19 15 22 20 22 22 22 25
38 37 35 33 30 27 23 25 22 21 21 19 19 20 22 24 25 27 29 30 30 30 31 32 33 33 35 30 28 26 25 24 23 23 22 21 20 21 21 19 18 19 20
38 36 34 31 27 23 24 22 21 18 17 17 19 21 24 25 27 28 30 30 29 29 29 30 31 32 34 28 27 25 26 24 24 23 22 21 19 21 21 19 20 19 19
37 34 32 26 23 23 23 21 17 16 18 19 21 24 26 27 28 29 30 30 29 27 29 29 30 30 31 27 26 24 27 32 25 23 21 24 20 19 19 20 21 20 19
34 30 24 22 23 26 23 20 17 17 18 21 24 25 26 26 27 27 28 28 28 30 32 34 31 31 32 31 26 24 26 27 25 23 22 22 21 20 18 18 20 22 18
23 22 22 24 25 24 22 16 14 15 21 24 25 26 27 26 25 27 27 28 28 29 35 34 32 31 31 30 28 26 25 25 26 24 23 24 22 20 17 18 18 18 19
20 24 27 29 26 22 18 18 21 22 24 26 26 26 27 28 27 27 27 27 26 29 31 32 32 31 31 30 29 27 26 26 25 25 24 22 21 19 19 17 17 19 20
27 32 31 26 20 20 22 22 24 25 25 26 26 26 26 27 27 27 26 26 28 28 28 28 29 30 28 29 28 31 29 27 26 27 26 23 22 22 21 20 19 20 20
35 31 24 22 19 21 23 22 23 25 25 26 26 27 27 28 28 28 28 28 28 28 27 27 27 31 30 28 28 27 26 28 27 24 24 23 22 20 19 18 17 18 17
32 27 24 24 22 20 20 21 22 23 25 27 27 29 28 29 28 27 28 30 30 29 27 27 28 30 29 29 28 27 26 26 25 23 22 24 26 23 21 19 18 18 16
Lifted_Index
-3 -3 -4 -3 -3 -3 -3 -3 -2 -1 -1 -1 0 1 2 3 4 4 4 4 4 4 3 3 4 4 5 6 7 8 8 9 9 9 9 9 9 8 8 8 9 9 10
-4 -4 -4 -4 -3 -3 -3 -3 -2 -2 -1 -0 0 1 2 3 4 4 4 4 4 4 4 4 4 5 6 7 7 8 9 9 10 10 10 10 10 10 9 9 9 10 10
-4 -4 -4 -4 -3 -3 -3 -2 -2 -1 -0 1 2 3 3 4 4 4 4 4 4 4 5 5 6 6 7 8 8 9 9 10 11 11 11 11 11 11 11 11 11 11 11
-3 -3 -3 -3 -2 -2 -1 -1 -0 1 2 3 3 4 4 4 4 5 5 5 5 5 6 7 7 7 8 8 9 9 10 11 11 12 12 12 12 12 12 12 12 11 11
-2 -1 -0 -0 -0 0 1 1 2 2 3 3 4 4 4 5 5 6 6 6 7 7 7 8 8 8 8 9 9 10 10 11 11 12 12 12 12 12 12 12 12 11 11
0 1 2 2 2 2 2 3 3 4 4 4 4 4 5 5 6 7 7 8 8 8 8 8 9 9 9 9 10 10 10 11 11 11 11 11 11 11 11 11 10 10 10
2 2 2 3 2 3 3 3 4 4 4 5 5 5 6 7 7 8 8 8 9 9 9 9 9 9 9 9 10 10 10 10 11 11 11 10 10 10 9 9 8 8 8
2 2 2 2 2 3 3 3 4 4 5 6 6 7 7 8 8 8 8 9 9 9 9 9 9 10 10 10 10 9 10 10 10 10 9 9 9 8 7 7 6 6 6
2 2 2 2 2 3 3 3 4 5 6 7 7 7 8 8 8 9 9 9 9 10 10 10 11 11 11 10 10 9 9 9 9 9 8 8 7 6 5 5 5 5 5
1 1 2 2 2 2 3 4 5 6 7 7 7 7 8 9 9 9 10 10 10 11 11 12 12 11 11 11 10 9 9 9 8 8 7 6 5 5 4 5 5 5 5
1 1 1 2 2 3 4 5 6 7 8 8 8 8 9 10 10 11 11 11 11 12 12 12 12 11 11 11 10 9 9 9 8 7 6 5 4 4 4 5 5 5 5
1 1 2 3 3 4 5 6 7 7 8 8 9 10 11 11 11 11 11 12 12 12 12 12 11 11 10 10 10 9 9 8 8 6 5 5 4 4 5 5 5 5 5
2 2 3 4 4 5 6 7 7 7 8 9 11 11 11 12 11 11 11 11 11 11 11 11 11 10 10 10 10 9 9 8 7 6 5 4 5 5 6 6 6 6 6
2 3 4 5 5 6 6 7 7 8 9 11 12 12 12 12 11 11 11 11 11 11 11 10 10 10 10 10 10 9 8 7 6 5 5 5 5 6 7 7 7 8 8
3 4 4 5 6 6 7 8 8 9 11 12 12 12 12 12 11 11 11 11 11 10 10 10 10 10 10 10 9 9 8 7 5 5 5 6 7 7 8 8 9 9 9
3 4 4 5 6 7 8 9 10 11 12 12 13 13 12 12 12 12 11 11 10 10 10 10 10 10 10 9 9 8 7 6 5 6 6 7 7 8 8 9 9 10 10
3 4 5 6 7 8 9 10 11 12 13 13 13 13 13 13 12 12 11 10 10 10 10 10 10 9 9 8 8 8 7 6 6 6 7 7 7 8 9 10 10 10 10
4 4 5 7 8 10 11 11 12 12 13 13 13 13 13 13 12 11 11 10 10 10 10 10 10 9 8 7 7 7 7 6 6 7 7 7 8 8 9 10 11 11 10
4 5 6 8 9 11 11 12 12 13 13 13 13 13 13 12 12 11 10 10 9 10 10 10 9 8 8 7 7 7 7 7 7 7 7 7 8 9 10 11 11 11 10
5 6 8 9 10 11 12 12 12 13 13 13 13 13 13 12 12 11 10 10 10 10 10 10 9 8 7 7 7 7 7 7 7 7 7 8 8 9 10 11 11 11 11
6 7 9 10 11 12 12 12 13 13 13 13 13 13 12 12 11 11 10 10 10 10 10 9 9 8 7 7 7 7 7 8 8 8 8 8 8 9 10 11 11 11 12
7 8 10 11 12 12 13 13 13 13 13 13 13 12 12 12 11 10 10 10 10 10 9 9 8 7 7 7 7 7 7 8 8 8 8 8 8 9 10 11 11 11 12
8 9 11 11 12 13 13 13 13 13 13 13 12 12 12 11 11 10 10 10 10 9 9 8 7 7 6 6 6 7 7 7 8 8 8 8 8 9 9 10 11 11 11
9 10 11 11 12 13 13 13 13 13 13 12 12 11 11 11 10 10 10 9 9 8 8 7 7 6 6 6 6 6 7 7 8 8 8 8 8 8 9 9 10 10 11
10 11 12 12 13 13 13 13 13 12 12 12 11 11 11 10 10 10 9 9 8 8 8 7 7 6 6 6 6 7 7 7 8 8 8 8 8 8 8 9 9 10 10
10 11 12 13 13 13 13 12 12 12 12 11 11 10 10 10 10 9 9 8 8 8 8 8 7 7 7 7 7 7 7 7 8 8 8 8 8 8 8 9 9 10 10